TimeMDT,TemperatureF,Dew PointF,Humidity,Sea Level PressureIn,VisibilityMPH,Wind Direction,Wind SpeedMPH,Gust SpeedMPH,PrecipitationIn,Events,Conditions,WindDirDegrees,DateUTC
12:55 AM,42.8,37.4,81,29.89,10.0,North,3.5,-,N/A,,Overcast,360,2013-05-22 06:55:00
1:15 AM,44.6,37.4,76,29.89,10.0,North,6.9,-,N/A,,Mostly Cloudy,360,2013-05-22 07:15:00
1:35 AM,44.6,37.4,76,29.89,10.0,Calm,Calm,-,N/A,,Scattered Clouds,0,2013-05-22 07:35:00
2:15 AM,39.2,35.6,87,29.87,10.0,North,6.9,-,N/A,,Clear,360,2013-05-22 08:15:00
2:36 AM,39.2,37.4,93,29.88,10.0,North,5.8,-,N/A,,Clear,10,2013-05-22 08:36:00
2:55 AM,39.2,35.6,87,29.87,10.0,NNW,5.8,-,N/A,,Clear,340,2013-05-22 08:55:00
3:15 AM,39.2,35.6,87,29.88,10.0,North,4.6,-,N/A,,Clear,350,2013-05-22 09:15:00
3:55 AM,39.2,35.6,87,29.87,10.0,NNE,3.5,-,N/A,,Mostly Cloudy,20,2013-05-22 09:55:00
4:15 AM,39.2,35.6,87,29.86,10.0,North,10.4,-,N/A,,Mostly Cloudy,360,2013-05-22 10:15:00
4:35 AM,41.0,37.4,87,29.86,10.0,North,8.1,-,N/A,,Mostly Cloudy,360,2013-05-22 10:35:00
4:55 AM,42.8,37.4,81,29.86,10.0,North,12.7,-,N/A,,Mostly Cloudy,350,2013-05-22 10:55:00
5:15 AM,42.8,37.4,81,29.85,10.0,North,9.2,-,N/A,,Mostly Cloudy,350,2013-05-22 11:15:00
5:35 AM,42.8,37.4,81,29.86,10.0,North,5.8,-,N/A,,Partly Cloudy,360,2013-05-22 11:35:00
5:55 AM,42.8,35.6,76,29.86,10.0,North,9.2,-,N/A,,Clear,360,2013-05-22 11:55:00
6:15 AM,39.2,35.6,87,29.86,10.0,North,6.9,-,N/A,,Clear,360,2013-05-22 12:15:00
6:35 AM,41.0,35.6,81,29.86,10.0,North,10.4,-,N/A,,Clear,10,2013-05-22 12:35:00
6:55 AM,44.6,35.6,71,29.86,10.0,North,12.7,-,N/A,,Clear,10,2013-05-22 12:55:00
6:56 AM,44.6,35.6,71,29.86,10.0,North,12.7,-,N/A,,Clear,360,2013-05-22 12:56:00
7:51 AM,48.2,35.6,62,29.86,10.0,NNW,8.1,-,N/A,,Clear,340,2013-05-22 13:51:00
8:56 AM,55.4,35.6,47,29.84,10.0,NNW,5.8,-,N/A,,Clear,340,2013-05-22 14:56:00
9:52 AM,59.0,35.6,42,29.84,10.0,North,4.6,-,N/A,,Clear,360,2013-05-22 15:52:00
10:53 AM,62.6,33.8,34,29.82,10.0,Calm,Calm,-,N/A,,Clear,0,2013-05-22 16:53:00
11:58 AM,64.4,35.6,34,29.80,10.0,SSE,8.1,-,N/A,,Clear,160,2013-05-22 17:58:00
12:51 PM,68.0,32.0,26,29.77,10.0,SE,16.1,20.7,N/A,,Partly Cloudy,140,2013-05-22 18:51:00
1:51 PM,68.0,28.4,23,29.73,10.0,ESE,23.0,32.2,N/A,Thunderstorm,Thunderstorm,120,2013-05-22 19:51:00
2:51 PM,57.2,42.8,59,29.74,10.0,NNE,8.1,-,N/A,Rain-Thunderstorm,Rain Showers,30,2013-05-22 20:51:00
3:10 PM,60.8,42.8,52,29.73,10.0,North,6.9,-,N/A,,Mostly Cloudy,360,2013-05-22 21:10:00
3:20 PM,60.8,37.4,42,29.76,10.0,South,23.0,31.1,N/A,Rain-Thunderstorm,Rain Showers,170,2013-05-22 21:20:00
3:51 PM,53.6,39.2,58,29.82,10.0,WSW,15.0,25.3,N/A,,Overcast,240,2013-05-22 21:51:00
4:55 PM,59.0,35.6,42,29.81,10.0,Calm,Calm,-,N/A,,Mostly Cloudy,0,2013-05-22 22:55:00
5:51 PM,60.8,35.6,39,29.80,10.0,ENE,4.6,-,N/A,,Mostly Cloudy,70,2013-05-22 23:51:00
6:50 PM,55.4,42.8,63,29.80,10.0,NNW,16.1,23.0,N/A,,Mostly Cloudy,340,2013-05-23 00:50:00
8:51 PM,53.6,42.8,67,29.79,10.0,North,11.5,-,N/A,,Scattered Clouds,350,2013-05-23 02:51:00
8:55 PM,51.8,42.8,71,29.79,10.0,North,10.4,-,N/A,,Clear,350,2013-05-23 02:55:00
9:35 PM,48.2,39.2,71,29.80,10.0,West,11.5,-,N/A,,Clear,260,2013-05-23 03:35:00
9:55 PM,51.8,37.4,58,29.83,10.0,North,6.9,-,N/A,,Mostly Cloudy,350,2013-05-23 03:55:00
10:35 PM,48.2,35.6,62,29.82,10.0,North,20.7,24.2,N/A,,Overcast,350,2013-05-23 04:35:00
10:55 PM,48.2,35.6,62,29.83,10.0,NNW,15.0,21.9,N/A,,Overcast,340,2013-05-23 04:55:00
11:15 PM,46.4,35.6,66,29.82,10.0,North,16.1,19.6,N/A,,Mostly Cloudy,10,2013-05-23 05:15:00
11:55 PM,44.6,37.4,76,29.86,10.0,North,11.5,-,N/A,,Overcast,10,2013-05-23 05:55:00